This demonstration page uses our WeatherBlox Daily Observations layout. Learn more.

Left ArrowRight Arrow

40.92945, -100.16068

Hourly Observations for October 19, 2020

Temp ( °F °C ) Dew Point ( °F °C ) Humidity (%) Winds ( mph kmh ) Pressure ( in mb ) Visibility ( mi km ) Precip ( " mm )
12:15 am 00:15 Cloudy 32 -0.2 28 -2.5 85 85 NNE 5 7 30.37 1028 10 16.0934 0 0
12:55 am 00:55 Cloudy with Light Snow 32 0 28 -2.3 85 85 ESE 8 13 30.34 1027 10 16.0934 0 0
1:20 am 01:20 Cloudy 32 0 28 -2 87 87 SE 10 17 30.3 1026 10 16.0934 0 0
1:35 am 01:35 Cloudy with Light Wintry Mix 32 -0.1 28 -2.5 84 84 SE 14 22 30.27 1025 10 16.0934 0 0
1:55 am 01:55 Cloudy with Light Wintry Mix 32 -0.2 28 -2.2 87 87 SE 12 19 30.25 1024 10 16.0934 0 0
2:15 am 02:15 Mostly Cloudy 32 0 28 -2 87 87 SE 12 19 30.25 1024 10 16.0934 0 0
2:35 am 02:35 Mostly Cloudy 32 0 29 -1.8 88 88 SE 12 19 30.23 1024 10 16.0934 0 0
2:55 am 02:55 Cloudy 32 0.1 29 -1.5 89 89 SE 9 15 30.25 1024 10 16.0934 0 0
3:15 am 03:15 Cloudy 32 0.2 29 -1.7 87 87 SE 9 15 30.25 1024 10 16.0934 0 0
5:15 am 05:15 Cloudy 32 0.2 29 -1.9 86 86 SE 8 13 30.22 1023 10 16.0934 0 0
5:35 am 05:35 Cloudy 32 0.2 29 -1.9 86 86 ESE 6 9 30.23 1024 10 16.0934 0 0
5:55 am 05:55 Cloudy 33 0.3 29 -1.8 86 86 SE 8 13 30.21 1023 10 16.0934 0 0
6:15 am 06:15 Cloudy 33 0.3 28 -2 85 85 ESE 6 9 30.22 1024 10 16.0934 0 0
6:35 am 06:35 Cloudy 33 0.5 29 -1.6 86 86 ESE 6 9 30.22 1023 10 16.0934 0 0
6:55 am 06:55 Cloudy 33 0.5 29 -1.6 86 86 ENE 7 11 30.23 1024 10 16.0934 0 0
7:15 am 07:15 Cloudy 33 0.5 29 -1.5 87 87 ESE 7 11 30.23 1024 10 16.0934 0 0
7:35 am 07:35 Cloudy 33 0.5 29 -1.5 87 87 E 8 13 30.24 1024 10 16.0934 0 0
7:55 am 07:55 Cloudy 33 0.5 29 -1.5 87 87 E 8 13 30.24 1024 10 16.0934 0 0
8:15 am 08:15 Cloudy 33 0.5 29 -1.5 87 87 ESE 7 11 30.24 1024 10 16.0934 0 0
8:35 am 08:35 Cloudy 33 0.5 30 -1.3 88 88 ESE 8 13 30.24 1024 10 16.0934 0 0
8:55 am 08:55 Cloudy 33 0.6 30 -1.3 87 87 ESE 12 19 30.23 1024 10 16.0934 0 0
9:15 am 09:15 Cloudy 33 0.7 29 -1.4 86 86 SE 9 15 30.25 1024 10 16.0934 0 0
9:35 am 09:35 Cloudy 34 1 30 -1.1 86 86 SE 10 17 30.25 1024 10 16.0934 0 0
9:55 am 09:55 Cloudy 35 1.6 30 -0.9 84 84 SE 10 17 30.23 1024 10 16.0934 0 0
10:15 am 10:15 Cloudy 36 2 30 -0.9 81 81 SSE 14 22 30.21 1023 10 16.0934 0 0
10:35 am 10:35 Mostly Cloudy 37 3 30 -1 75 75 SSE 13 20 30.21 1023 10 16.0934 0 0
10:55 am 10:55 Partly Cloudy 38 3.6 29 -1.8 68 68 S 14 22 30.19 1022 10 16.0934 0 0
11:15 am 11:15 Sunny 40 4.7 29 -1.7 64 64 S 14 22 30.17 1022 10 16.0934 0 0
11:35 am 11:35 Sunny 42 5.7 29 -1.5 60 60 S 13 20 30.15 1021 10 16.0934 0 0
11:55 am 11:55 Sunny 44 6.4 28 -2.2 55 55 SSW 14 22 30.14 1021 10 16.0934 0 0
12:15 pm 12:15 Sunny 45 7.4 28 -2 52 52 S 16 26 30.13 1020 10 16.0934 0 0
12:35 pm 12:35 Sunny 47 8.1 29 -1.4 51 51 SSW 14 22 30.11 1020 10 16.0934 0 0
12:55 pm 12:55 Sunny 47 8.1 30 -1.3 52 52 SW 13 20 30.11 1020 10 16.0934 0 0
1:15 pm 13:15 Sunny 48 9 31 -0.8 51 51 SW 14 22 30.09 1019 10 16.0934 0 0
1:35 pm 13:35 Sunny 49 9.3 31 -0.7 50 50 SSW 13 20 30.08 1019 10 16.0934 0 0
1:55 pm 13:55 Sunny 49 9.7 31 -0.5 49 49 SW 13 20 30.06 1018 10 16.0934 0 0
2:15 pm 14:15 Sunny 50 10.1 31 -0.5 48 48 SW 10 17 30.07 1018 10 16.0934 0 0
2:35 pm 14:35 Sunny 50 10.2 30 -0.9 46 46 SW 7 11 30.07 1018 10 16.0934 0 0
2:55 pm 14:55 Sunny 51 10.5 31 -0.8 46 46 S 3 6 30.06 1018 10 16.0934 0 0
3:15 pm 15:15 Sunny 52 11.3 31 -0.6 44 44 SSW 5 7 30.03 1017 10 16.0934 0 0
3:35 pm 15:35 Sunny 53 11.5 31 -0.4 44 44 SSW 7 11 30.02 1017 10 16.0934 0 0
3:55 pm 15:55 Sunny 53 11.4 31 -0.7 43 43 S 5 7 30.03 1017 10 16.0934 0 0
4:15 pm 16:15 Partly Cloudy 52 11.2 31 -0.8 44 44 S 6 9 30.02 1017 10 16.0934 0 0
4:35 pm 16:35 Cloudy 52 11.2 31 -0.6 44 44 SE 6 9 30.03 1017 10 16.0934 0 0
4:55 pm 16:55 Cloudy 53 11.5 31 -0.8 43 43 SSW 6 9 30.02 1017 10 16.0934 0 0
5:15 pm 17:15 Cloudy 52 11.2 30 -1 43 43 SSE 8 13 30.02 1017 10 16.0934 0 0
5:35 pm 17:35 Mostly Cloudy 52 11 30 -1 44 44 ESE 3 6 30.04 1017 10 16.0934 0 0
5:55 pm 17:55 Partly Cloudy 52 11 31 -0.6 45 45 SE 6 9 30.04 1017 10 16.0934 0 0
6:15 pm 18:15 Sunny 52 11.1 31 -0.4 45 45 SSE 7 11 30.04 1017 10 16.0934 0 0
6:35 pm 18:35 Sunny 51 10.4 31 -0.5 47 47 SE 5 7 30.06 1018 10 16.0934 0 0
6:55 pm 18:55 Clear 49 9.2 31 -0.6 51 51 SSE 7 11 30.07 1018 10 16.0934 0 0
7:15 pm 19:15 Clear 46 8 31 -0.8 54 54 SE 5 7 30.09 1019 10 16.0934 0 0
7:35 pm 19:35 Clear 45 7 30 -1 57 57 SSE 7 11 30.09 1019 10 16.0934 0 0
7:55 pm 19:55 Clear 45 7.3 31 -0.6 58 58 SE 7 11 30.09 1019 10 16.0934 0 0
8:15 pm 20:15 Clear 45 7.2 31 -0.5 58 58 SE 7 11 30.1 1019 10 16.0934 0 0
8:35 pm 20:35 Clear 44 6.9 31 -0.5 60 60 SSE 7 11 30.1 1019 10 16.0934 0 0
8:55 pm 20:55 Clear 43 6.3 30 -1 60 60 SSE 8 13 30.11 1019 10 16.0934 0 0
9:15 pm 21:15 Clear 42 5.4 30 -1 64 64 SSE 7 11 30.11 1020 10 16.0934 0 0
9:35 pm 21:35 Clear 41 4.8 30 -1 66 66 SSE 6 9 30.12 1020 10 16.0934 0 0
9:55 pm 21:55 Clear 41 5.2 30 -1 65 65 SSE 7 11 30.12 1020 10 16.0934 0 0
10:15 pm 22:15 Clear 40 4.7 31 -0.6 69 69 SSE 7 11 30.12 1020 10 16.0934 0 0
10:35 pm 22:35 Clear 40 4.2 31 -0.6 71 71 SSE 7 11 30.13 1020 10 16.0934 0 0
10:55 pm 22:55 Clear 40 4.2 31 -0.5 72 72 SSE 7 11 30.13 1020 10 16.0934 0 0
11:15 pm 23:15 Clear 40 4.6 32 -0.1 72 72 SSE 8 13 30.12 1020 10 16.0934 0 0
11:35 pm 23:35 Clear 40 4.7 32 0 72 72 SSE 8 13 30.12 1020 10 16.0934 0 0
11:55 pm 23:55 Clear 40 4.5 32 0 73 73 S 9 15 30.13 1020 10 16.0934 0 0

Powered by AerisWeather